GFSNW_925_rhum_009.txt.gz
RH
78 83 73 68 81 95 95 96 100 92 94 98 100 99 67 71 85 79 80 68 69 71 72 83 76 80 67 67 78 95 77 88 97 85 70 64 63 72 73 90 86 88 81 61
82 78 66 74 91 98 98 98 98 97 81 100 100 89 79 82 93 87 78 79 70 67 76 88 84 78 62 75 76 85 81 97 98 86 85 74 92 77 72 72 74 90 84 58
83 67 72 82 97 100 100 97 100 99 95 93 88 81 80 83 75 87 78 80 75 80 80 69 81 84 64 70 71 66 69 90 91 74 72 99 100 87 88 96 92 74 72 60
81 68 76 81 94 100 99 98 99 88 100 98 77 71 72 84 87 73 75 82 74 80 94 86 92 81 70 75 69 73 84 99 98 90 77 91 100 97 95 98 82 82 56 56
78 69 79 81 90 97 89 98 97 90 92 79 71 78 78 78 80 80 85 80 75 80 90 72 77 73 76 73 77 83 86 98 100 96 92 97 98 98 96 90 81 74 64 65
80 71 76 82 86 99 94 91 93 98 78 76 78 83 77 82 74 71 71 76 76 86 78 69 66 71 69 71 76 86 98 100 100 91 74 100 99 94 95 91 82 80 86 64
78 77 76 83 87 97 100 92 99 98 92 76 74 72 73 78 75 84 79 78 84 69 66 69 78 81 88 85 79 73 98 100 100 97 98 98 95 77 73 78 67 70 66 56
78 80 77 82 85 92 100 99 99 99 90 77 74 76 68 70 80 81 79 75 72 70 73 86 95 92 88 90 89 88 82 94 100 100 100 92 61 71 81 81 78 61 71 64
81 81 79 80 81 85 100 99 100 100 92 84 60 79 82 94 90 90 83 82 83 80 92 91 100 93 77 85 81 93 88 88 98 100 98 96 56 78 66 70 81 62 59 62
80 82 80 81 78 84 98 99 99 100 99 82 70 82 89 82 86 88 83 84 88 85 95 98 98 96 76 92 89 91 98 98 99 97 96 80 63 61 74 80 70 67 68 62
82 82 80 84 78 82 92 93 99 99 99 86 69 76 86 86 86 88 85 92 94 99 99 99 97 94 90 91 76 87 87 97 97 88 94 79 58 74 82 63 62 64 74 77
85 83 83 80 77 80 90 94 88 97 99 86 85 75 68 61 66 82 89 85 89 91 90 97 94 91 90 89 90 80 92 75 78 82 73 58 58 60 59 65 68 64 72 80
77 77 75 76 75 79 88 95 94 93 99 89 89 83 73 68 64 61 88 94 81 93 97 99 93 99 87 94 93 81 76 77 84 73 61 68 66 57 63 78 73 75 77 74
73 73 74 75 76 77 83 94 93 96 99 99 84 84 84 84 75 73 71 84 92 95 99 96 97 97 82 89 82 86 80 78 76 79 70 68 62 61 70 84 82 79 74 72
75 74 72 76 76 78 81 73 80 93 98 97 93 88 94 96 90 90 89 89 93 98 99 98 95 87 86 92 90 91 84 76 80 77 64 64 62 71 76 79 81 77 72 72
78 72 69 75 77 79 84 96 100 100 100 100 100 94 97 96 95 98 97 97 98 98 97 92 87 80 78 94 95 71 71 70 70 66 62 72 77 73 71 79 78 74 73 68
77 75 74 78 84 85 89 94 96 84 91 100 100 98 95 96 93 94 96 97 99 99 95 96 97 98 95 95 99 66 70 72 67 66 71 68 70 70 75 74 76 73 71 65
77 78 81 89 95 93 91 82 74 100 100 99 100 98 94 93 98 98 97 99 99 99 96 98 99 95 96 99 83 74 67 71 68 74 68 71 81 81 82 74 70 73 74 70
80 82 84 97 92 94 90 90 94 100 100 100 99 99 90 97 97 95 99 99 99 94 99 97 97 96 99 83 79 75 83 75 72 82 82 82 81 82 77 72 71 72 74 71
80 77 90 98 89 79 86 93 99 100 100 100 99 90 92 90 97 99 98 96 98 100 96 96 99 98 78 76 75 69 77 79 81 82 93 91 89 85 77 71 65 65 68 71
82 90 94 93 86 98 95 100 97 100 96 98 96 90 93 94 97 96 95 99 100 100 92 98 98 97 85 80 81 77 75 74 69 60 66 66 68 72 71 72 71 73 72 74
97 99 100 99 97 100 100 100 99 98 96 98 98 97 90 95 92 94 96 97 98 93 92 98 96 90 81 82 84 80 76 74 66 63 70 71 69 66 66 71 74 75 76 74
88 93 94 97 99 98 98 98 99 100 100 100 99 99 92 92 91 96 93 97 94 89 94 96 94 90 81 81 87 86 79 72 73 75 74 71 75 69 66 74 72 71 72 70
89 97 98 97 98 98 99 99 99 99 100 100 97 96 93 90 94 94 94 92 92 96 99 96 90 86 77 88 89 87 84 77 77 77 76 78 77 81 76 72 69 66 67 67
93 90 96 99 98 99 100 100 100 99 98 100 96 95 85 96 92 92 94 97 96 91 94 89 91 89 91 91 89 89 85 84 86 83 83 86 82 80 85 75 67 70 70 66
96 91 94 83 95 96 84 96 99 99 98 99 98 96 93 89 92 98 99 98 96 82 92 93 95 86 88 89 87 85 82 81 80 80 80 81 79 78 84 78 74 72 68 66
92 96 96 89 94 99 82 84 92 88 100 100 100 99 82 91 98 99 93 90 84 88 93 99 99 97 91 87 84 83 82 80 80 80 80 85 86 79 74 78 77 70 67 64

GFSNW_925_rhum_012.txt.gz
RH
84 80 69 80 88 97 95 96 100 98 85 99 99 100 69 67 69 69 63 53 55 58 62 69 64 65 54 47 61 76 59 68 85 70 46 46 44 54 61 92 78 88 74 56
80 77 75 84 93 99 100 97 97 99 88 99 100 90 73 76 75 74 66 66 56 53 63 73 58 60 50 54 58 60 62 91 90 72 68 58 70 56 54 81 84 88 84 48
78 76 76 86 92 100 92 97 100 95 88 78 75 71 72 81 71 75 65 68 60 60 62 58 68 67 58 52 53 58 58 66 85 66 66 61 100 78 77 96 92 68 68 55
77 79 76 86 89 96 89 97 96 85 100 86 60 59 68 76 76 69 63 68 61 62 70 69 69 64 62 61 62 62 65 100 92 77 66 77 89 85 93 99 79 80 55 47
75 80 79 83 88 86 91 96 97 76 84 69 58 70 68 68 76 67 72 68 64 63 66 65 69 66 66 62 62 66 71 89 97 96 79 78 97 88 94 97 94 69 60 60
77 81 78 83 85 89 95 94 92 91 84 74 63 67 63 63 63 68 65 63 68 77 69 59 59 57 60 62 65 72 89 100 100 88 63 72 96 96 96 95 92 75 82 59
80 81 80 82 81 90 99 96 99 96 85 72 61 61 63 65 61 74 72 65 72 67 61 59 63 62 65 73 77 60 91 100 100 97 90 96 84 78 82 83 79 71 62 54
81 83 82 84 81 88 96 100 99 97 81 64 62 61 62 69 70 68 70 69 63 61 64 77 75 76 81 74 75 74 69 90 100 99 98 69 68 75 86 78 64 52 60 55
82 83 82 86 81 85 84 100 99 98 94 72 54 60 60 65 70 77 72 76 73 72 81 79 93 77 66 69 74 80 79 82 99 100 98 91 66 54 60 59 65 52 57 54
83 83 84 86 79 82 86 94 99 98 99 70 56 66 70 67 69 77 75 78 82 84 84 85 95 82 68 69 70 85 90 96 96 96 93 64 53 54 69 65 56 54 60 52
76 81 80 77 78 79 85 84 97 98 98 84 67 61 73 76 68 71 73 81 87 94 96 96 86 86 67 73 62 67 64 78 87 78 76 78 51 58 58 53 52 54 62 71
75 74 73 74 76 78 81 89 88 88 99 92 88 77 69 61 56 68 81 75 80 80 93 93 94 82 75 68 67 63 74 59 57 60 54 46 49 52 48 55 57 57 61 65
75 73 72 72 73 76 79 85 88 89 98 88 82 72 78 69 63 61 73 90 73 88 86 94 93 97 88 75 69 66 63 60 66 65 49 54 50 50 53 60 62 62 64 61
77 75 73 72 73 76 77 85 85 90 96 100 78 83 81 84 74 70 71 75 84 89 96 93 89 94 69 70 69 68 60 67 64 63 53 50 51 52 57 65 63 63 60 56
79 79 79 72 73 79 81 77 86 85 95 98 86 84 98 94 88 86 83 78 82 89 95 98 92 80 88 72 76 70 60 57 55 48 52 50 50 57 61 63 63 60 60 60
81 80 80 78 78 82 85 92 100 90 95 100 97 90 91 93 92 90 89 88 89 87 94 91 86 73 82 86 76 53 50 54 51 48 52 54 59 59 60 62 64 58 57 55
79 80 78 79 81 83 84 87 97 87 96 98 99 94 93 95 90 91 89 89 92 92 94 96 88 82 93 96 81 52 53 52 53 56 55 59 61 56 60 61 62 59 53 52
80 80 80 88 94 91 88 84 74 88 100 98 100 96 88 92 95 90 84 92 98 98 95 96 99 95 99 98 72 60 56 59 59 57 59 61 60 63 65 62 59 59 57 54
82 85 76 91 76 85 93 87 90 93 100 99 100 100 95 94 94 87 99 96 99 90 100 98 98 90 98 77 66 63 61 62 58 68 66 66 64 67 67 63 60 59 59 55
78 75 87 97 90 89 95 97 96 100 99 100 98 79 90 85 91 97 92 95 98 100 92 96 99 97 72 67 65 61 59 62 69 75 91 95 93 86 69 66 56 55 56 53
89 85 94 98 93 99 92 100 100 99 100 97 88 81 82 84 90 90 88 96 100 100 90 95 96 85 71 67 66 68 64 60 61 56 58 60 60 63 62 60 58 57 55 54
91 98 96 98 100 100 100 100 100 97 96 98 96 86 81 90 87 89 94 98 98 99 81 95 96 75 74 67 68 76 67 62 62 57 60 59 60 57 57 61 60 58 62 61
85 88 90 95 98 96 95 96 99 99 100 100 99 99 87 89 85 91 92 96 93 80 96 91 81 75 68 65 74 77 69 63 63 68 66 63 65 64 60 63 64 63 61 59
83 90 96 93 95 94 95 99 100 100 100 99 98 97 93 86 96 88 95 84 87 96 98 92 83 71 65 73 80 79 72 66 67 70 69 74 72 71 68 67 66 62 62 61
88 87 98 95 92 99 99 100 100 99 98 99 97 96 82 95 95 85 94 96 95 86 86 82 81 75 76 80 81 79 72 69 74 74 74 75 74 66 71 70 63 61 61 58
93 92 95 84 90 90 88 88 97 98 98 100 98 99 98 97 92 97 99 97 93 82 96 83 72 75 77 80 79 76 70 67 69 68 70 69 67 65 68 66 62 60 59 57
89 92 92 91 92 94 90 73 80 79 98 100 100 100 100 93 95 96 89 90 90 92 88 83 92 90 80 78 76 75 72 70 70 73 70 70 71 67 64 65 65 62 58 57

GFSNW_925_rhum_018.txt.gz
RH
75 82 79 84 96 95 75 84 97 92 84 95 95 98 97 69 64 58 48 41 42 50 51 55 54 52 46 40 44 57 46 62 92 80 50 49 54 64 62 86 79 80 86 68
78 81 82 86 92 99 94 94 92 81 97 95 91 94 84 59 68 62 54 49 43 40 48 56 48 48 42 40 48 53 51 82 94 88 62 48 57 53 53 59 71 90 94 64
79 83 84 81 84 96 88 95 96 89 93 82 81 96 77 91 69 55 48 47 42 44 48 45 54 56 51 43 48 56 50 63 85 91 78 72 98 79 63 68 98 80 77 66
82 83 85 79 74 87 93 88 86 70 90 69 73 74 79 68 58 54 47 50 45 46 54 51 54 53 57 50 59 51 55 98 83 75 64 65 72 74 71 94 94 98 79 79
78 82 85 82 79 80 82 93 98 87 61 55 65 61 67 65 58 57 53 51 44 45 49 57 52 51 53 60 57 59 60 97 98 89 75 75 82 72 71 75 95 96 95 94
81 84 87 84 82 91 95 90 88 95 56 53 55 49 53 58 57 60 53 50 54 56 64 57 52 51 50 54 60 66 86 99 98 90 66 73 87 75 85 84 78 88 98 86
76 83 85 82 83 84 99 94 98 97 67 55 49 47 49 54 59 66 59 50 53 68 51 53 55 57 54 55 60 59 91 100 100 98 90 92 70 68 69 80 78 71 60 75
78 77 76 78 80 83 80 99 99 98 98 53 48 48 50 51 60 63 63 62 61 54 59 72 64 74 67 66 61 70 73 94 100 100 96 67 63 71 66 82 80 59 60 61
80 78 77 75 77 80 75 97 91 98 100 66 54 49 52 66 62 67 63 64 65 63 74 78 72 74 83 82 86 74 78 84 98 99 98 90 60 54 62 62 95 55 66 71
81 81 78 75 74 76 79 88 89 97 99 70 78 54 55 50 55 67 67 76 80 70 81 88 77 81 67 72 79 93 95 96 97 97 98 79 49 46 53 92 70 61 56 80
82 80 80 76 74 74 77 78 83 88 98 88 70 65 64 53 58 64 74 82 78 83 90 81 79 82 67 70 58 69 75 86 91 91 98 94 44 49 65 62 57 56 57 72
83 83 79 77 76 73 74 72 78 75 98 89 84 79 75 71 66 67 69 74 70 79 88 89 88 90 89 77 80 57 67 59 66 69 71 47 47 52 46 53 59 59 60 67
82 80 79 74 72 79 67 76 78 80 97 94 95 87 68 66 62 64 73 80 67 74 81 91 92 96 90 94 78 70 51 47 68 60 47 48 49 48 53 56 60 59 60 63
81 79 79 70 72 82 76 76 74 88 94 100 90 75 72 76 69 67 67 72 80 89 89 94 88 95 80 88 80 78 66 60 64 65 58 50 55 56 56 58 57 64 57 58
83 86 85 83 83 86 78 77 81 80 92 100 96 82 88 85 78 74 70 72 82 91 98 98 94 88 85 78 74 78 59 66 75 73 53 55 60 56 53 59 61 59 62 65
83 84 86 78 78 79 82 79 98 100 86 100 100 88 87 84 77 73 73 75 87 91 94 94 89 72 84 98 83 56 50 47 47 51 49 53 58 57 53 60 59 59 62 61
88 84 86 89 88 85 82 74 99 100 100 100 100 100 94 82 79 85 90 86 94 92 96 98 89 85 90 96 95 60 47 49 52 46 52 56 57 63 60 60 59 56 56 54
86 86 88 97 93 94 93 70 83 100 100 97 100 100 96 86 92 96 89 96 96 98 93 94 96 90 95 97 78 66 60 55 58 56 54 59 61 63 64 58 57 60 61 57
88 77 79 79 78 73 94 96 96 99 100 100 99 100 100 92 90 92 94 91 99 93 98 96 96 93 98 85 76 68 63 64 62 66 62 62 65 68 65 60 59 59 58 56
84 84 75 82 84 90 97 98 99 100 98 99 100 74 97 90 93 96 94 97 95 100 92 90 99 92 72 69 64 66 69 63 71 73 87 89 87 81 70 64 56 54 55 54
83 79 85 90 89 97 97 100 100 100 100 97 89 81 86 86 86 89 91 98 100 100 95 89 98 88 74 66 59 60 65 68 69 66 60 71 69 70 69 64 58 55 53 53
91 93 93 97 99 100 100 100 100 100 99 96 92 89 86 88 90 87 91 100 98 99 83 93 96 89 76 60 61 68 72 70 69 61 56 62 62 63 64 62 58 54 53 51
87 86 95 97 100 99 97 98 100 99 99 100 100 98 92 92 94 94 91 100 97 84 96 87 94 88 70 70 72 77 71 65 64 66 60 58 68 60 58 60 54 54 51 49
87 84 94 94 83 85 95 98 100 100 100 99 99 98 96 88 98 93 91 88 87 90 96 94 97 90 79 74 74 77 76 71 72 73 74 76 79 72 61 61 66 54 50 49
87 86 90 92 93 100 100 100 100 100 99 100 100 100 88 100 98 89 98 91 88 81 93 99 93 90 84 78 76 78 77 70 74 76 77 77 75 73 72 60 52 53 54 52
96 92 97 88 98 92 84 98 99 97 90 100 100 100 100 100 96 94 90 88 90 98 98 97 92 87 85 79 78 80 78 70 68 68 70 70 70 69 67 58 57 55 53 54
87 88 83 95 94 94 94 73 71 68 95 100 100 98 99 99 99 92 91 90 100 96 97 97 89 89 83 80 82 83 80 76 71 68 67 67 66 64 59 61 59 55 54 53

GFSNW_925_rhum_021.txt.gz
RH
83 84 86 83 97 81 79 84 89 76 81 92 95 100 100 89 70 63 54 46 53 58 66 69 63 66 53 46 45 60 50 71 97 80 62 58 62 70 69 86 78 91 94 69
78 82 88 84 96 94 88 94 92 73 80 98 100 93 78 74 83 66 56 56 47 50 56 63 54 56 44 48 45 61 54 78 93 81 71 58 69 64 63 63 76 84 91 65
78 82 90 84 94 81 80 89 97 89 96 92 88 87 91 83 68 61 55 50 45 50 51 50 58 68 50 48 54 55 50 74 80 86 79 79 86 75 67 71 97 78 76 65
78 86 87 82 78 82 82 95 92 77 95 88 84 87 81 68 68 56 53 53 48 51 58 57 65 65 60 52 58 53 61 88 92 80 75 77 77 76 73 84 78 97 68 71
77 78 81 82 80 77 80 95 96 87 94 70 77 68 71 70 66 70 59 56 54 63 70 65 64 63 66 67 64 62 66 98 96 98 76 81 91 78 72 72 71 78 81 83
80 79 78 80 84 81 89 88 89 96 88 67 66 65 70 64 64 62 62 54 60 80 76 68 63 56 56 55 69 71 81 96 98 96 74 85 93 79 70 78 80 82 97 77
81 81 78 77 81 82 97 97 99 97 91 71 64 54 54 59 67 70 61 56 68 70 55 57 58 60 59 62 63 68 95 99 99 99 89 90 68 71 70 84 73 74 77 65
83 80 80 77 76 80 81 96 98 98 99 91 64 51 52 68 63 66 70 67 66 62 62 79 78 84 68 62 67 76 76 94 100 100 96 74 63 75 78 86 74 64 66 71
81 84 80 78 76 76 75 98 84 97 100 87 76 76 55 76 75 72 76 70 70 66 83 86 81 73 80 91 90 71 82 83 99 98 99 96 60 59 65 70 87 56 66 77
85 80 77 82 79 76 74 85 76 92 99 85 80 81 70 60 67 81 77 84 82 74 88 94 87 87 68 91 91 95 95 99 98 98 98 82 60 52 65 88 65 62 59 75
88 79 82 81 80 79 73 72 91 73 99 91 73 69 86 92 63 70 79 81 82 90 96 91 90 88 78 76 74 86 88 94 96 97 99 93 49 60 69 58 59 59 61 71
80 83 81 81 73 78 79 71 69 83 96 87 84 74 66 69 76 83 76 79 79 82 92 91 89 88 87 87 90 61 76 71 78 79 75 51 49 52 54 58 63 61 64 70
81 86 75 80 78 79 79 81 71 80 96 81 92 87 60 66 72 71 78 82 74 83 83 91 88 94 84 90 93 77 62 53 63 65 56 54 51 58 57 58 60 61 65 72
83 75 81 85 86 80 80 86 75 81 93 100 86 75 82 74 71 65 66 74 84 86 88 92 92 92 83 75 85 89 76 68 70 76 65 60 59 58 57 60 66 61 64 66
81 87 83 86 88 84 78 81 76 70 86 99 98 90 83 82 74 68 68 76 86 93 97 97 94 87 88 81 80 86 70 72 80 82 58 60 62 58 56 62 65 64 67 68
76 82 90 86 91 92 100 93 96 99 88 96 99 93 94 85 79 78 80 80 90 90 91 94 90 79 86 90 93 64 60 59 55 57 52 58 58 59 56 63 64 64 66 65
85 85 85 89 94 94 97 82 97 100 92 100 99 100 96 83 84 89 93 88 93 90 94 98 91 89 88 97 89 66 64 61 57 57 54 60 63 66 62 63 64 60 60 59
87 88 88 84 90 88 91 80 96 97 100 100 99 100 98 88 98 98 92 99 98 98 93 94 97 91 93 96 80 74 72 70 66 69 63 60 68 69 68 64 60 62 61 58
89 87 74 85 83 79 92 96 87 93 100 100 100 100 100 96 95 96 98 92 99 92 96 95 94 92 99 86 82 74 69 75 74 67 67 68 69 73 69 66 64 62 61 59
83 79 72 92 80 87 96 100 99 100 100 100 100 85 99 91 93 100 96 98 97 100 95 94 99 97 78 63 59 61 64 67 78 77 82 85 85 84 74 69 60 57 58 56
80 86 80 84 84 97 97 100 100 100 100 98 94 86 91 88 91 97 93 100 100 100 95 92 99 95 71 66 67 66 72 74 77 76 78 70 70 76 74 70 62 58 64 65
85 98 93 97 100 100 100 98 100 100 100 97 96 94 91 92 91 91 94 100 99 98 86 94 88 92 81 75 75 76 74 72 70 69 77 67 69 71 68 66 63 58 55 55
83 97 95 99 99 99 99 97 99 98 99 100 99 99 96 91 91 97 94 96 97 87 96 88 90 91 82 80 77 77 73 69 72 74 71 62 66 66 63 62 60 58 62 63
90 94 95 98 95 86 95 98 99 99 100 99 99 99 98 94 97 94 85 89 85 89 98 92 99 94 90 82 77 78 80 77 78 79 80 80 78 78 69 64 59 61 72 65
93 93 95 95 92 99 99 100 100 100 99 99 99 100 91 99 100 90 96 94 91 78 88 99 98 94 89 86 80 80 82 79 75 81 79 80 85 85 93 86 80 76 56 53
96 95 98 90 98 98 95 97 99 98 92 99 100 100 99 99 88 97 89 85 86 96 99 98 96 92 89 85 80 82 82 78 74 72 72 71 72 74 72 64 56 55 54 55
89 96 88 95 97 95 98 80 78 74 98 100 100 99 95 99 99 96 84 95 100 98 94 98 92 93 92 84 86 86 88 82 78 78 71 70 70 65 61 63 61 56 55 54

GFSNW_925_rhum_024.txt.gz
RH
82 87 87 89 98 89 71 84 92 67 75 93 97 100 98 89 78 66 61 53 57 58 72 75 71 79 62 52 55 67 52 76 94 83 61 59 65 73 74 90 77 94 92 81
79 83 85 87 96 93 93 94 96 77 80 93 97 89 87 80 78 70 56 56 50 56 71 72 60 57 48 53 54 62 54 77 94 80 72 68 73 69 67 68 77 92 93 71
80 80 84 86 81 80 80 91 90 87 93 91 86 89 88 74 60 60 54 55 50 52 54 51 66 64 53 51 53 57 55 79 77 86 76 79 85 75 72 76 98 86 80 61
81 81 82 85 75 74 83 95 94 91 98 82 79 89 81 74 72 62 53 51 49 54 63 64 74 64 59 59 56 59 62 86 90 82 77 79 80 78 77 88 74 93 66 68
82 82 81 81 74 78 77 92 90 82 96 83 78 72 72 78 70 70 64 66 63 54 70 66 74 68 66 64 63 65 67 96 94 95 82 87 92 81 77 73 67 68 68 73
84 82 82 80 80 76 88 87 88 96 85 82 73 67 66 64 64 59 62 60 75 81 76 69 61 53 58 61 69 75 78 93 99 97 77 86 96 86 79 73 70 74 91 72
84 84 81 80 80 78 98 95 98 95 92 88 74 69 58 62 68 67 66 65 71 69 57 57 62 67 60 60 61 68 89 97 98 98 86 92 65 60 62 69 75 78 81 74
85 81 83 81 79 79 78 87 95 98 91 88 83 79 59 66 64 68 71 71 69 64 62 81 84 86 65 68 65 76 74 89 95 94 90 75 64 72 79 88 75 67 79 70
88 90 84 79 81 79 65 88 77 96 100 93 86 83 64 76 77 77 77 72 72 66 84 86 84 89 76 92 94 75 79 81 98 100 99 96 57 62 65 66 94 67 65 70
82 90 80 83 84 82 76 76 78 91 100 86 88 94 87 71 74 81 78 81 77 73 92 95 92 87 76 96 92 98 99 98 98 99 97 85 60 54 66 83 66 63 62 71
77 78 86 82 84 78 80 75 88 81 95 85 70 73 83 89 77 84 80 82 84 93 95 93 88 88 84 82 78 88 86 95 99 99 100 92 53 67 73 58 61 59 61 72
84 81 88 77 80 81 76 74 72 72 90 86 76 72 65 70 72 94 81 74 85 86 93 92 90 90 88 89 89 71 90 74 82 84 78 52 48 54 54 60 66 62 64 71
95 90 78 75 83 88 83 81 78 76 92 80 83 70 35 45 43 48 98 85 75 86 82 92 90 88 82 89 84 80 68 58 69 70 59 61 59 58 57 58 61 65 67 75
96 88 79 81 84 86 88 90 80 92 86 93 81 79 80 69 94 75 78 78 84 87 88 91 93 89 85 76 82 91 81 75 71 74 69 63 59 57 58 59 64 61 68 71
99 91 82 86 91 88 90 92 82 79 78 90 84 62 48 66 93 86 81 79 85 91 93 94 95 88 89 89 80 88 78 80 83 76 61 61 61 56 57 62 64 62 70 71
98 86 88 86 88 94 89 99 99 88 87 96 98 88 91 96 93 82 82 87 90 89 89 93 89 80 83 98 93 68 70 66 60 66 56 60 61 59 58 61 64 64 67 68
96 87 89 89 88 98 96 82 93 98 98 98 98 98 92 91 86 94 95 90 94 90 89 94 90 89 88 97 95 62 70 75 80 74 66 68 66 65 65 63 65 64 62 62
94 90 93 84 89 84 96 96 99 86 99 100 99 98 99 90 98 98 93 99 95 97 92 95 96 92 92 99 80 74 68 59 67 66 67 66 70 70 69 68 65 67 67 62
78 86 75 82 83 85 93 92 100 99 98 100 100 99 100 94 98 98 97 95 98 93 97 95 92 92 98 78 65 62 67 72 71 74 72 69 68 73 72 68 68 68 66 60
75 77 75 99 91 82 93 100 100 100 100 100 99 98 99 94 91 100 95 98 96 100 97 97 99 95 76 66 66 70 75 79 83 94 88 89 85 87 76 74 67 65 64 60
78 92 92 85 88 95 98 100 100 100 100 100 98 93 96 91 93 98 96 99 100 100 97 96 99 96 70 72 77 76 78 80 79 80 81 82 81 78 81 76 69 65 64 67
80 92 96 96 99 96 100 99 99 100 99 96 99 98 95 93 90 95 96 99 100 99 87 95 95 89 85 84 82 78 76 77 78 76 78 79 83 79 78 72 67 63 65 76
89 98 94 97 98 99 99 97 99 100 99 100 99 99 99 90 90 96 94 94 97 89 97 89 94 90 86 85 84 80 74 76 77 84 81 80 71 70 69 66 62 62 59 56
93 96 95 98 99 97 96 99 99 99 100 99 99 99 98 95 98 94 89 90 86 98 97 88 96 96 94 86 82 82 82 80 80 91 85 88 89 85 74 65 60 60 63 62
95 97 98 97 92 98 99 99 99 100 99 99 99 100 94 100 97 93 96 97 95 86 82 97 98 97 93 91 84 84 85 84 81 77 89 78 87 87 96 90 81 73 82 88
95 98 99 89 96 97 97 96 99 98 99 99 100 100 100 100 95 98 94 86 84 93 99 99 96 91 92 92 86 88 86 84 81 79 76 74 74 82 91 97 96 91 82 69
95 98 93 96 98 98 91 81 84 76 99 100 100 99 87 98 100 98 89 92 97 98 94 99 93 92 93 92 91 91 89 86 86 87 80 77 73 68 68 68 71 79 82 76

GFSNW_925_rhum_030.txt.gz
RH
88 87 86 85 90 96 75 81 85 64 73 94 97 99 98 84 83 70 61 55 61 72 71 74 71 79 62 54 58 64 56 79 97 77 66 63 66 75 74 82 77 96 94 73
88 88 87 85 85 100 96 90 88 61 71 96 95 85 86 86 79 68 59 56 51 61 67 72 64 64 54 58 54 61 62 79 93 84 71 68 74 75 69 70 80 95 88 60
88 88 87 86 80 80 88 89 89 89 92 91 80 88 85 76 67 63 55 58 55 59 59 62 69 64 62 60 55 57 56 74 76 80 70 82 91 81 75 76 96 85 83 71
88 86 87 86 75 76 74 95 95 90 97 87 90 86 84 80 83 70 52 54 57 58 69 71 74 66 63 63 61 65 61 87 86 78 72 79 77 75 84 84 78 86 69 74
89 87 86 84 76 77 80 89 89 80 86 94 77 75 75 79 74 76 62 61 56 56 67 64 79 69 66 64 62 67 68 95 89 93 77 87 94 84 79 80 73 74 70 74
90 90 90 84 84 75 83 86 86 95 82 91 78 76 74 74 74 63 71 60 73 75 76 72 59 54 58 57 71 77 75 96 93 91 81 88 94 88 82 74 75 69 82 57
79 79 92 85 86 72 84 84 98 90 93 94 88 87 83 73 74 66 73 67 68 69 62 62 65 67 67 63 66 69 82 89 92 96 86 95 58 67 67 70 65 69 64 63
83 82 84 86 84 87 68 84 92 96 84 76 87 92 92 78 68 73 73 74 73 71 65 78 78 76 68 67 64 73 66 82 94 92 90 75 59 77 75 74 68 66 66 62
99 93 82 88 81 90 72 80 74 90 96 87 81 81 93 88 83 76 78 76 75 71 86 80 89 96 79 87 94 78 78 77 87 93 97 97 56 69 68 64 76 58 74 74
90 98 84 81 85 83 72 71 74 84 96 80 85 89 92 90 86 87 80 82 77 70 89 90 90 89 75 96 96 92 99 100 97 91 93 83 61 54 67 80 67 57 65 68
76 95 98 94 87 82 85 81 67 72 89 82 68 70 74 78 85 93 83 84 85 92 88 90 90 91 89 87 83 91 88 95 90 84 99 95 62 74 73 61 62 62 64 63
97 93 96 98 89 80 84 89 78 78 88 80 62 62 60 61 64 75 80 90 83 88 91 94 92 96 95 88 94 80 92 82 92 84 81 56 53 59 56 66 66 61 64 64
92 89 88 100 91 85 82 85 87 85 100 87 89 85 57 57 66 56 80 88 82 86 81 92 90 86 90 97 95 83 76 70 81 80 67 70 64 62 61 62 60 59 67 72
97 96 88 92 95 89 90 93 95 96 99 98 78 55 60 47 68 67 58 56 66 80 92 88 92 86 82 88 81 88 82 78 80 82 72 66 62 61 57 57 60 66 66 71
98 95 93 94 95 91 92 88 87 86 98 98 86 73 66 59 50 57 63 63 66 92 99 93 92 91 90 93 89 94 86 78 83 80 71 75 72 66 60 63 67 66 69 72
97 84 97 95 94 94 88 92 87 83 99 99 97 72 78 59 63 62 55 64 91 95 98 91 92 78 82 93 84 74 77 75 70 85 79 82 80 84 76 70 72 69 69 74
77 97 96 82 96 92 88 84 74 92 98 100 97 96 89 84 76 73 71 79 96 93 96 92 93 94 87 88 90 76 76 64 63 66 70 78 72 80 78 78 66 64 65 69
91 94 76 95 90 93 92 83 91 86 98 100 98 95 100 88 90 93 86 93 94 98 95 95 95 97 90 92 76 63 63 68 63 72 76 77 75 75 80 69 73 70 71 70
91 66 91 95 95 91 86 92 99 96 98 99 98 98 98 91 96 96 99 96 98 97 93 95 89 96 94 82 77 68 72 79 86 89 90 90 90 87 77 72 71 73 72 70
61 77 84 92 88 90 98 100 100 98 100 100 98 99 96 99 94 98 94 91 96 93 85 96 97 92 82 75 75 76 78 82 89 96 94 93 92 92 90 83 76 75 71 70
59 91 92 85 80 92 97 98 100 97 100 100 99 100 98 94 94 97 92 98 96 98 98 99 94 84 85 82 80 81 85 86 86 89 90 92 94 93 92 88 86 78 72 72
79 86 90 89 99 100 100 96 99 100 99 100 100 98 99 97 93 94 96 97 97 98 94 99 98 93 89 86 84 85 87 85 80 75 87 89 86 91 90 88 86 81 72 66
92 99 100 98 98 98 99 94 98 99 99 100 99 99 100 95 92 98 99 99 98 94 100 96 96 94 90 90 88 86 83 76 76 76 84 90 91 93 85 75 70 72 71 68
92 96 97 98 96 92 97 95 98 95 100 98 98 99 99 97 99 95 92 96 92 100 100 93 98 92 92 90 89 91 91 85 85 81 86 92 95 97 97 82 70 69 74 75
94 93 97 97 91 97 98 100 98 97 98 98 98 100 98 100 98 92 97 99 98 90 89 95 98 92 91 92 90 94 94 89 86 84 85 81 80 81 90 98 86 66 64 68
94 98 99 90 98 95 96 98 98 96 97 99 100 99 99 99 98 98 94 89 85 85 100 99 91 92 92 91 90 91 94 91 86 86 87 88 83 81 77 99 99 95 87 89
98 98 93 98 100 98 97 89 90 84 98 99 99 98 91 99 99 99 92 93 91 98 99 95 90 90 91 91 85 89 92 91 90 93 91 91 85 78 74 76 72 96 100 100

GFSNW_925_rhum_033.txt.gz
RH
90 90 89 87 85 99 80 81 83 62 70 90 94 100 96 84 81 69 57 55 65 74 73 76 73 75 64 53 56 64 61 79 95 79 67 63 65 72 65 72 74 88 82 53
91 89 89 86 80 98 99 91 86 57 71 90 95 84 79 85 79 73 58 55 53 61 67 72 64 64 56 57 54 64 61 77 93 82 71 70 75 75 67 68 77 97 75 44
92 92 89 86 77 84 91 88 84 88 92 91 81 85 83 79 72 68 55 57 57 57 62 66 70 65 67 58 52 60 56 71 73 72 67 81 91 82 71 73 88 78 75 60
93 92 90 86 66 78 76 95 92 87 98 89 89 88 85 80 79 70 53 56 56 59 70 72 73 68 67 62 63 64 62 86 86 75 67 80 77 77 82 84 75 79 61 71
93 90 93 87 67 78 78 93 85 70 80 93 87 75 78 78 75 78 63 60 59 59 67 62 77 70 68 68 63 67 69 95 89 92 77 85 92 82 79 78 71 72 70 71
81 88 92 86 83 61 82 81 87 89 78 92 86 79 79 73 76 68 73 64 71 73 74 73 64 58 61 60 73 77 74 94 92 87 76 85 94 88 80 76 76 68 82 61
93 89 86 89 90 72 79 84 98 92 86 93 92 88 88 87 80 70 74 67 66 69 66 65 62 68 68 66 70 68 81 84 87 90 83 95 57 66 69 71 65 67 62 59
91 90 86 84 90 84 66 68 90 92 91 81 85 87 97 89 77 75 73 76 70 70 63 78 77 78 66 68 68 70 63 80 93 91 93 71 58 75 78 75 67 62 63 57
92 90 94 80 93 88 72 71 72 88 94 79 73 74 80 98 88 80 79 79 78 71 83 77 88 95 79 91 94 78 75 72 80 87 91 96 55 70 67 64 80 62 66 66
88 94 95 95 75 88 81 76 73 78 90 77 84 87 84 87 93 94 84 85 81 73 88 86 88 91 75 95 87 96 98 100 94 88 89 82 60 64 69 91 73 56 67 71
92 94 95 98 99 88 83 82 81 71 85 76 66 62 84 79 78 97 88 91 88 91 87 90 88 90 89 88 82 78 79 92 86 78 93 93 61 71 78 64 61 61 64 64
99 92 97 96 98 94 93 90 84 81 90 79 63 60 56 48 51 59 65 93 92 89 88 92 91 96 95 88 97 83 92 79 86 79 75 58 60 63 57 64 64 61 63 62
92 94 97 86 97 97 91 84 86 99 100 95 93 92 64 66 66 62 77 82 88 92 88 91 91 86 91 97 96 85 82 76 86 80 68 72 65 58 63 61 63 58 62 68
95 98 95 81 92 98 91 95 93 94 99 99 82 61 66 48 51 65 65 54 63 74 93 94 92 86 84 91 80 85 81 84 84 85 76 66 65 63 58 58 59 63 67 69
92 98 81 84 94 92 95 94 95 94 95 96 89 68 64 64 56 68 68 65 64 83 99 98 92 90 91 94 90 94 88 84 90 90 73 73 72 69 71 74 82 78 72 68
99 97 98 96 91 93 91 92 80 89 100 99 97 75 77 64 71 73 79 77 77 97 99 96 92 80 82 95 98 74 80 78 70 81 77 86 83 81 77 75 76 73 73 75
95 95 94 90 96 93 87 82 71 85 94 95 98 92 78 95 81 79 78 63 86 98 99 95 96 95 86 92 95 74 83 74 62 70 70 77 75 76 78 81 82 76 65 69
90 97 93 94 92 91 87 81 89 95 99 97 97 95 96 83 83 96 88 84 83 100 97 97 97 98 92 94 77 74 65 66 66 78 77 76 81 86 82 78 75 73 74 72
83 65 85 96 94 88 84 94 99 100 99 99 99 98 96 94 96 92 93 86 98 95 98 94 89 98 96 81 84 74 72 70 76 85 87 88 88 90 89 86 74 76 76 74
70 74 82 95 88 81 85 100 100 100 100 100 98 98 97 96 98 99 98 95 100 100 96 95 97 97 83 76 80 80 79 80 84 92 91 94 97 96 95 92 88 80 74 74
77 83 94 82 75 90 97 99 99 95 98 99 99 99 98 96 100 97 96 98 98 98 98 90 94 93 91 85 84 85 85 84 86 89 89 86 86 95 96 96 91 89 83 78
98 98 92 94 97 100 100 96 96 98 98 100 100 99 98 96 95 93 95 99 98 97 96 98 98 92 91 85 84 85 87 85 83 76 79 86 87 90 94 92 90 89 83 74
92 98 100 96 97 98 97 94 97 98 99 99 98 98 99 96 94 98 97 94 93 95 98 96 96 94 92 92 90 87 87 83 82 83 84 90 93 95 98 94 87 78 74 73
93 93 95 97 95 98 98 98 98 95 93 89 97 99 100 99 100 96 99 99 91 98 100 94 95 92 95 92 92 90 92 88 87 86 84 84 87 89 90 100 90 70 74 74
93 92 86 96 90 96 96 98 99 96 92 93 96 98 100 100 100 98 98 99 99 93 75 94 98 94 90 91 90 94 94 91 87 86 86 85 83 78 76 91 98 87 67 72
94 93 99 89 99 95 95 97 98 96 97 95 99 99 99 100 100 100 95 92 92 83 98 98 91 90 91 89 85 89 90 88 85 88 88 88 86 85 78 75 80 97 94 87
98 97 93 98 99 97 95 90 91 86 98 99 99 99 99 99 99 99 94 91 87 94 100 96 88 91 91 89 83 86 86 85 86 91 94 94 89 81 81 82 78 74 92 100

GFSNW_925_rhum_036.txt.gz
RH
94 95 92 89 85 95 90 76 83 63 71 80 81 92 85 79 68 61 49 50 57 62 63 66 63 54 54 47 44 51 52 62 83 73 59 55 53 53 43 50 68 62 55 28
95 94 92 91 86 94 100 82 75 56 79 73 72 70 68 70 62 60 53 50 50 53 57 63 56 59 51 49 47 50 49 65 89 86 67 62 66 56 51 50 58 77 45 29
95 90 92 90 86 90 90 80 81 68 69 72 65 68 68 66 65 62 51 50 51 49 52 51 57 55 59 51 49 58 45 57 68 52 69 64 83 66 57 55 72 54 44 36
91 90 92 88 85 80 81 82 89 78 85 73 73 76 74 70 67 64 51 52 49 46 55 56 57 57 59 55 61 53 50 89 81 60 59 70 68 65 66 80 56 62 41 44
95 93 90 90 73 61 78 85 82 66 75 80 72 70 70 72 69 69 56 54 50 49 52 44 56 55 55 54 60 54 57 92 86 83 68 70 79 65 62 63 58 55 49 50
90 96 91 90 77 53 77 85 82 82 69 76 71 67 70 69 69 62 65 48 56 60 55 54 48 43 43 47 54 59 61 90 84 76 65 67 73 66 62 59 58 54 63 44
96 88 90 91 90 70 72 87 95 80 74 75 76 76 77 74 73 78 65 56 54 61 49 47 46 48 51 50 54 48 65 77 78 82 72 82 52 54 53 55 49 51 47 44
96 94 85 91 96 81 67 72 88 81 68 69 62 73 82 76 67 73 70 65 64 55 58 59 62 62 58 61 62 54 50 58 82 83 69 51 42 59 61 63 64 48 51 44
94 93 91 92 90 86 80 72 70 82 79 53 74 66 65 85 76 68 72 72 69 63 63 69 68 77 58 75 75 66 60 52 63 78 83 71 48 59 51 52 70 54 49 50
91 88 88 88 98 96 85 77 78 76 71 46 73 67 74 79 90 84 73 80 76 68 71 66 60 66 60 75 71 83 79 82 82 71 68 56 42 58 58 83 66 53 56 56
92 92 86 93 95 95 98 87 80 77 78 61 57 50 56 55 44 91 82 87 86 84 84 73 73 58 63 69 58 65 64 71 85 73 80 76 48 61 64 56 54 55 63 57
85 87 90 92 93 98 96 94 82 85 84 72 67 60 53 48 46 50 50 92 83 74 78 75 68 71 69 63 76 64 70 53 56 55 52 40 50 55 53 51 51 57 57 56
95 89 91 92 95 98 99 98 90 96 100 91 92 80 70 75 66 58 61 53 76 90 89 83 73 74 65 72 68 68 64 56 64 65 47 49 48 49 57 56 56 54 54 58
89 93 93 85 93 94 93 98 92 92 91 97 69 64 68 51 56 69 63 53 60 82 100 96 84 73 68 66 60 62 61 65 61 63 58 58 54 52 52 54 56 59 59 60
90 95 92 96 98 97 93 96 94 92 91 82 72 66 67 65 63 69 70 64 62 68 88 99 98 72 72 72 68 69 66 66 68 62 51 48 51 54 64 67 65 59 63 63
92 92 92 95 96 94 89 87 80 84 99 98 91 68 66 64 70 66 67 66 67 71 75 87 98 73 66 79 72 54 56 61 57 55 56 60 62 64 67 65 61 58 61 60
92 90 94 95 95 95 87 73 68 78 92 97 88 82 61 88 75 72 72 70 82 75 77 78 95 90 73 75 67 54 56 58 64 63 59 61 65 65 64 63 63 67 66 61
88 91 82 88 91 94 94 88 97 94 99 98 92 87 82 75 76 83 67 79 68 82 95 74 83 96 83 83 66 66 64 60 59 63 64 64 63 65 66 70 68 68 64 60
85 74 76 98 93 88 83 92 96 100 98 93 91 90 91 99 94 81 76 64 78 77 100 94 94 94 98 72 70 65 61 61 65 69 67 66 71 75 77 77 72 71 66 65
78 66 83 89 88 79 82 100 100 100 100 100 96 96 93 99 98 94 100 81 78 100 98 93 98 97 80 70 68 62 65 66 70 70 79 89 94 87 84 83 78 76 74 70
83 90 85 78 73 91 93 99 98 95 93 95 95 97 96 97 100 96 96 100 100 100 99 97 97 87 82 72 74 70 68 68 71 72 74 74 79 86 89 87 82 77 78 78
95 98 92 95 93 100 98 92 94 97 96 100 100 100 99 98 98 99 95 100 99 97 92 93 93 86 84 74 74 73 71 72 72 71 73 82 85 88 93 94 85 78 72 82
91 90 99 91 91 95 95 95 94 91 97 93 96 96 100 97 99 99 98 99 96 96 100 89 84 86 80 79 76 76 73 73 73 73 76 75 88 95 96 97 96 89 87 72
87 88 76 91 91 88 92 92 92 87 92 88 91 97 100 98 100 97 100 100 98 99 95 84 86 83 80 79 79 75 77 76 75 77 77 78 83 79 76 91 100 78 66 74
88 82 65 85 82 89 89 92 97 91 89 91 88 97 100 99 100 100 99 98 93 84 74 80 88 83 83 81 80 79 78 76 76 78 76 76 78 74 70 79 91 94 81 73
92 90 87 81 94 89 87 90 94 88 88 90 98 100 100 100 100 100 97 90 87 78 89 87 80 83 80 73 72 78 76 70 68 79 81 81 80 78 76 73 74 75 95 97
98 89 87 88 93 90 84 77 79 80 91 94 96 98 97 99 99 96 88 86 88 89 90 87 81 84 77 72 71 74 70 65 73 84 87 88 88 83 80 79 81 80 75 92